| time (UTC) | temp F | wind direction | speed MPH | gust MPH | rain 1hr in | rain 24hr in | rain mn in | humidity % | barometer mb |
| 20260506123657 | 49 | 153 | 2.0 | 6.0 | 0.00 | 0.00 | 0.00 | 76 | 1014.5 |
| 20260506123416 | 50 | 138 | 2.0 | 7.0 | 0.00 | 0.00 | 0.00 | 76 | 1014.4 |
| 20260506122656 | 50 | 153 | 3.0 | 7.0 | 0.00 | 0.00 | 0.00 | 76 | 1014.4 |
| 20260506122151 | 50 | 146 | 3.0 | 7.0 | 0.00 | 0.00 | 0.00 | 76 | 1014.3 |
| 20260506121645 | 50 | 136 | 3.0 | 6.0 | 0.00 | 0.00 | 0.00 | 76 | 1014.3 |
| 20260506121420 | 50 | 145 | 3.0 | 7.0 | 0.00 | 0.00 | 0.00 | 76 | 1014.3 |
| 20260506120632 | 50 | 143 | 3.0 | 8.0 | 0.00 | 0.00 | 0.00 | 75 | 1014.2 |
| 20260506120409 | 51 | 143 | 4.0 | 8.0 | 0.00 | 0.00 | 0.00 | 75 | 1014.2 |
| 20260506115911 | 51 | 144 | 4.0 | 7.0 | 0.00 | 0.00 | 0.00 | 75 | 1014.1 |
| 20260506115113 | 51 | 140 | 3.0 | 7.0 | 0.00 | 0.00 | 0.00 | 75 | 1014.1 |
| 20260506114608 | 51 | 136 | 3.0 | 5.0 | 0.00 | 0.00 | 0.00 | 74 | 1014.1 |
| 20260506114102 | 51 | 140 | 3.0 | 5.0 | 0.00 | 0.00 | 0.00 | 74 | 1014.1 |
| 20260506113600 | 51 | 144 | 3.0 | 4.0 | 0.00 | 0.00 | 0.00 | 73 | 1014.0 |
| 20260506113050 | 51 | 139 | 2.0 | 4.0 | 0.00 | 0.00 | 0.00 | 73 | 1013.9 |
| 20260506112825 | 51 | 142 | 1.0 | 3.0 | 0.00 | 0.00 | 0.00 | 74 | 1013.9 |
| 20260506112041 | 51 | 143 | 0.0 | 3.0 | 0.00 | 0.00 | 0.00 | 73 | 1013.9 |
| 20260506111532 | 52 | 143 | 1.0 | 4.0 | 0.00 | 0.00 | 0.00 | 72 | 1013.9 |
| 20260506111026 | 53 | 144 | 1.0 | 4.0 | 0.00 | 0.00 | 0.00 | 71 | 1013.6 |
| 20260506110520 | 54 | 169 | 0.0 | 2.0 | 0.00 | 0.00 | 0.00 | 69 | 1013.6 |
| 20260506110014 | 55 | 169 | 0.0 | 0.0 | 0.00 | 0.00 | 0.00 | 69 | 1013.6 |
| 20260506105509 | 55 | 169 | 0.0 | 0.0 | 0.00 | 0.00 | 0.00 | 67 | 1013.8 |
| 20260506105003 | 55 | 169 | 0.0 | 0.0 | 0.00 | 0.00 | 0.00 | 67 | 1013.8 |
| 20260506104728 | 55 | 169 | 0.0 | 0.0 | 0.00 | 0.00 | 0.00 | 67 | 1013.8 |
| 20260506103950 | 55 | 169 | 0.0 | 1.0 | 0.00 | 0.00 | 0.00 | 67 | 1013.6 |
| 20260506103450 | 56 | 169 | 0.0 | 2.0 | 0.00 | 0.00 | 0.00 | 66 | 1013.5 |
| 20260506102951 | 56 | 169 | 0.0 | 3.0 | 0.00 | 0.00 | 0.00 | 67 | 1013.5 |
| 20260506102451 | 56 | 171 | 0.0 | 3.0 | 0.00 | 0.00 | 0.00 | 67 | 1013.5 |
| 20260506101953 | 56 | 182 | 1.0 | 5.0 | 0.00 | 0.00 | 0.00 | 67 | 1013.5 |
| 20260506101456 | 56 | 182 | 3.0 | 6.0 | 0.00 | 0.00 | 0.00 | 68 | 1013.5 |
| 20260506100946 | 56 | 188 | 2.0 | 6.0 | 0.00 | 0.00 | 0.00 | 69 | 1013.4 |
| 20260506100447 | 56 | 186 | 2.0 | 4.0 | 0.00 | 0.00 | 0.00 | 70 | 1013.4 |
| 20260506095944 | 56 | 188 | 2.0 | 4.0 | 0.00 | 0.00 | 0.00 | 70 | 1013.4 |
| 20260506095445 | 56 | 203 | 3.0 | 5.0 | 0.00 | 0.00 | 0.00 | 71 | 1013.4 |
| 20260506094947 | 56 | 203 | 2.0 | 5.0 | 0.00 | 0.00 | 0.00 | 72 | 1013.4 |
| 20260506094444 | 56 | 216 | 1.0 | 4.0 | 0.00 | 0.00 | 0.00 | 72 | 1013.4 |
| 20260506093944 | 56 | 216 | 0.0 | 2.0 | 0.00 | 0.00 | 0.00 | 72 | 1013.4 |
| 20260506093444 | 56 | 216 | 0.0 | 0.0 | 0.00 | 0.00 | 0.00 | 72 | 1013.3 |
| 20260506092946 | 57 | 216 | 0.0 | 0.0 | 0.00 | 0.00 | 0.00 | 71 | 1013.4 |
| 20260506092454 | 57 | 216 | 0.0 | 2.0 | 0.00 | 0.00 | 0.00 | 71 | 1013.4 |
| 20260506092220 | 57 | 216 | 1.0 | 2.0 | 0.00 | 0.00 | 0.00 | 71 | 1013.3 |
| 20260506091442 | 57 | 216 | 1.0 | 3.0 | 0.00 | 0.00 | 0.00 | 71 | 1013.3 |
| 20260506090942 | 58 | 218 | 1.0 | 3.0 | 0.00 | 0.00 | 0.00 | 71 | 1013.3 |
| 20260506090436 | 58 | 240 | 1.0 | 2.0 | 0.00 | 0.00 | 0.00 | 71 | 1013.2 |
| 20260506085931 | 58 | 242 | 1.0 | 2.0 | 0.00 | 0.00 | 0.00 | 70 | 1013.2 |
| 20260506085424 | 58 | 242 | 1.0 | 3.0 | 0.00 | 0.00 | 0.00 | 70 | 1013.3 |
| 20260506084923 | 58 | 242 | 1.0 | 3.0 | 0.00 | 0.00 | 0.00 | 70 | 1013.2 |
| 20260506084654 | 58 | 242 | 2.0 | 3.0 | 0.00 | 0.00 | 0.00 | 70 | 1013.3 |
| 20260506083922 | 58 | 244 | 2.0 | 3.0 | 0.00 | 0.00 | 0.00 | 69 | 1013.2 |
| 20260506083422 | 58 | 245 | 2.0 | 3.0 | 0.00 | 0.00 | 0.00 | 69 | 1013.3 |
| 20260506082922 | 58 | 252 | 2.0 | 3.0 | 0.00 | 0.00 | 0.00 | 68 | 1013.3 |
| 20260506082702 | 59 | 259 | 1.0 | 3.0 | 0.00 | 0.00 | 0.00 | 68 | 1013.3 |
| 20260506081923 | 59 | 262 | 1.0 | 3.0 | 0.00 | 0.00 | 0.00 | 68 | 1013.2 |
| 20260506081423 | 59 | 263 | 1.0 | 3.0 | 0.00 | 0.00 | 0.00 | 67 | 1013.3 |
| 20260506080923 | 59 | 263 | 0.0 | 2.0 | 0.00 | 0.00 | 0.00 | 68 | 1013.2 |
| 20260506080421 | 59 | 263 | 0.0 | 0.0 | 0.00 | 0.00 | 0.00 | 68 | 1013.2 |
| 20260506073422 | 60 | 265 | 0.0 | 0.0 | 0.00 | 0.00 | 0.00 | 67 | 1012.9 |
| 20260506072922 | 60 | 264 | 0.0 | 0.0 | 0.00 | 0.00 | 0.00 | 67 | 1012.9 |
| 20260506072701 | 60 | 264 | 0.0 | 0.0 | 0.00 | 0.00 | 0.00 | 67 | 1012.8 |
| 20260506072143 | 60 | 264 | 0.0 | 0.0 | 0.00 | 0.00 | 0.00 | 66 | 1012.8 |
| 20260506071409 | 60 | 264 | 0.0 | 0.0 | 0.00 | 0.00 | 0.00 | 66 | 1012.7 |
| 20260506070905 | 60 | 264 | 0.0 | 0.0 | 0.00 | 0.00 | 0.00 | 66 | 1012.6 |
| 20260506070355 | 60 | 264 | 0.0 | 0.0 | 0.00 | 0.00 | 0.00 | 65 | 1012.6 |
| 20260506062307 | 62 | 264 | 0.0 | 1.0 | 0.00 | 0.00 | 0.00 | 62 | 1012.3 |
| 20260506061802 | 63 | 264 | 0.0 | 1.0 | 0.00 | 0.00 | 0.00 | 62 | 1012.3 |
| 20260506061253 | 63 | 264 | 1.0 | 3.0 | 0.00 | 0.00 | 0.00 | 61 | 1012.2 |
| 20260506061038 | 63 | 265 | 1.0 | 3.0 | 0.00 | 0.00 | 0.00 | 61 | 1012.2 |
| 20260506060241 | 63 | 267 | 1.0 | 3.0 | 0.00 | 0.00 | 0.00 | 61 | 1012.1 |
| 20260506051141 | 66 | 296 | 2.0 | 7.0 | 0.00 | 0.00 | 0.00 | 59 | 1011.6 |
| 20260506050636 | 66 | 278 | 2.0 | 7.0 | 0.00 | 0.00 | 0.00 | 59 | 1011.6 |
| 20260506050425 | 66 | 276 | 2.0 | 7.0 | 0.00 | 0.00 | 0.00 | 59 | 1011.6 |
| 20260506045118 | 67 | 294 | 4.0 | 7.0 | 0.00 | 0.00 | 0.00 | 59 | 1011.5 |
| 20260506044853 | 67 | 267 | 4.0 | 7.0 | 0.00 | 0.00 | 0.00 | 59 | 1011.4 |
| 20260506044104 | 67 | 260 | 4.0 | 7.0 | 0.00 | 0.00 | 0.00 | 58 | 1011.3 |
| 20260506043558 | 67 | 279 | 3.0 | 7.0 | 0.00 | 0.00 | 0.00 | 57 | 1011.3 |
| 20260506043053 | 67 | 300 | 3.0 | 7.0 | 0.00 | 0.00 | 0.00 | 56 | 1011.3 |
| 20260506042600 | 68 | 271 | 2.0 | 5.0 | 0.00 | 0.00 | 0.00 | 54 | 1011.1 |
| 20260506041534 | 68 | 296 | 3.0 | 7.0 | 0.00 | 0.00 | 0.00 | 52 | 1011.0 |
| 20260506041029 | 68 | 281 | 3.0 | 7.0 | 0.00 | 0.00 | 0.00 | 52 | 1010.9 |
| 20260506040808 | 68 | 288 | 2.0 | 4.0 | 0.00 | 0.00 | 0.00 | 50 | 1010.9 |
| 20260506040303 | 68 | 298 | 1.0 | 3.0 | 0.00 | 0.00 | 0.00 | 48 | 1010.8 |
| 20260506035511 | 68 | 303 | 0.0 | 3.0 | 0.00 | 0.00 | 0.00 | 47 | 1010.7 |
| 20260506035005 | 68 | 304 | 0.0 | 1.0 | 0.00 | 0.00 | 0.00 | 47 | 1010.7 |
| 20260506034501 | 69 | 304 | 0.0 | 2.0 | 0.00 | 0.00 | 0.00 | 47 | 1010.6 |
| 20260506033953 | 69 | 304 | 0.0 | 2.0 | 0.00 | 0.00 | 0.00 | 46 | 1010.5 |
| 20260506033448 | 69 | 304 | 0.0 | 2.0 | 0.00 | 0.00 | 0.00 | 45 | 1010.3 |
| 20260506032941 | 70 | 304 | 0.0 | 1.0 | 0.00 | 0.00 | 0.00 | 45 | 1010.3 |
| 20260506032725 | 71 | 304 | 0.0 | 2.0 | 0.00 | 0.00 | 0.00 | 44 | 1010.3 |
| 20260506031929 | 71 | 304 | 0.0 | 2.0 | 0.00 | 0.00 | 0.00 | 43 | 1010.2 |
| 20260506031423 | 72 | 304 | 1.0 | 3.0 | 0.00 | 0.00 | 0.00 | 42 | 1010.2 |
| 20260506030918 | 73 | 306 | 2.0 | 5.0 | 0.00 | 0.00 | 0.00 | 42 | 1010.2 |
| 20260506030648 | 73 | 306 | 2.0 | 5.0 | 0.00 | 0.00 | 0.00 | 41 | 1010.2 |
| 20260506030148 | 74 | 304 | 3.0 | 5.0 | 0.00 | 0.00 | 0.00 | 41 | 1010.1 |
| 20260506025401 | 74 | 304 | 3.0 | 7.0 | 0.00 | 0.00 | 0.00 | 40 | 1010.1 |
| 20260506024853 | 74 | 300 | 3.0 | 7.0 | 0.00 | 0.00 | 0.00 | 40 | 1010.1 |
| 20260506024351 | 74 | 324 | 2.0 | 7.0 | 0.00 | 0.00 | 0.00 | 39 | 1009.9 |
| 20260506024141 | 75 | 313 | 2.0 | 5.0 | 0.00 | 0.00 | 0.00 | 39 | 1009.9 |
| 20260506023636 | 75 | 325 | 3.0 | 7.0 | 0.00 | 0.00 | 0.00 | 38 | 1009.9 |
| 20260506023145 | 75 | 296 | 3.0 | 9.0 | 0.00 | 0.00 | 0.00 | 37 | 1009.8 |
| 20260506022422 | 76 | 342 | 2.0 | 6.0 | 0.00 | 0.00 | 0.00 | 33 | 1009.8 |
| 20260506022352 | 76 | 348 | 3.0 | 9.0 | 0.00 | 0.00 | 0.00 | 35 | 1009.8 |
| 20260506022156 | 76 | 344 | 2.0 | 8.0 | 0.00 | 0.00 | 0.00 | 34 | 1009.7 |
| 20260506021352 | 76 | 344 | 2.0 | 8.0 | 0.00 | 0.00 | 0.00 | 34 | 1009.7 |
| 20260506020852 | 76 | 38 | 3.0 | 9.0 | 0.00 | 0.00 | 0.00 | 34 | 1009.7 |
| 20260506020351 | 76 | 19 | 3.0 | 9.0 | 0.00 | 0.00 | 0.00 | 33 | 1009.7 |
| 20260506015847 | 76 | 54 | 3.0 | 8.0 | 0.00 | 0.00 | 0.00 | 33 | 1009.7 |
| 20260506015347 | 77 | 351 | 3.0 | 9.0 | 0.00 | 0.00 | 0.00 | 33 | 1009.6 |
| 20260506014847 | 77 | 355 | 2.0 | 9.0 | 0.00 | 0.00 | 0.00 | 33 | 1009.6 |
| 20260506014348 | 77 | 29 | 3.0 | 9.0 | 0.00 | 0.00 | 0.00 | 33 | 1009.6 |
| 20260506013848 | 78 | 32 | 4.0 | 11.0 | 0.00 | 0.00 | 0.00 | 32 | 1009.6 |
| 20260506013347 | 78 | 337 | 4.0 | 14.0 | 0.00 | 0.00 | 0.00 | 31 | 1009.6 |
| 20260506012851 | 79 | 344 | 4.0 | 14.0 | 0.00 | 0.00 | 0.00 | 32 | 1009.6 |
| 20260506012349 | 79 | 53 | 3.0 | 11.0 | 0.00 | 0.00 | 0.00 | 31 | 1009.4 |
| 20260506011850 | 79 | 46 | 3.0 | 11.0 | 0.00 | 0.00 | 0.00 | 32 | 1009.5 |
| 20260506011341 | 79 | 54 | 3.0 | 10.0 | 0.00 | 0.00 | 0.00 | 32 | 1009.5 |
| 20260506010836 | 79 | 19 | 4.0 | 10.0 | 0.00 | 0.00 | 0.00 | 32 | 1009.5 |
| 20260506010403 | 80 | 333 | 5.0 | 12.0 | 0.00 | 0.00 | 0.00 | 31 | 1009.3 |
| 20260506010348 | 79 | 346 | 6.0 | 12.0 | 0.00 | 0.00 | 0.00 | 32 | 1009.4 |
| 20260506005318 | 79 | 355 | 3.0 | 8.0 | 0.00 | 0.00 | 0.00 | 32 | 1009.3 |
| 20260506004811 | 79 | 51 | 3.0 | 9.0 | 0.00 | 0.00 | 0.00 | 32 | 1009.4 |
| 20260506004304 | 79 | 13 | 4.0 | 10.0 | 0.00 | 0.00 | 0.00 | 32 | 1009.4 |
| 20260506004040 | 79 | 351 | 4.0 | 10.0 | 0.00 | 0.00 | 0.00 | 31 | 1009.3 |
| 20260506003252 | 81 | 333 | 3.0 | 10.0 | 0.00 | 0.00 | 0.00 | 31 | 1009.2 |
| 20260506002746 | 81 | 355 | 3.0 | 10.0 | 0.00 | 0.00 | 0.00 | 31 | 1009.2 |
| 20260506002528 | 81 | 58 | 4.0 | 14.0 | 0.00 | 0.00 | 0.00 | 31 | 1009.2 |
| 20260506002007 | 81 | 42 | 4.0 | 14.0 | 0.00 | 0.00 | 0.00 | 30 | 1009.2 |
| 20260506001228 | 81 | 324 | 5.0 | 11.0 | 0.00 | 0.00 | 0.00 | 30 | 1009.2 |
| 20260506000722 | 81 | 43 | 5.0 | 13.0 | 0.00 | 0.00 | 0.00 | 30 | 1009.2 |
| 20260506000221 | 81 | 12 | 4.0 | 13.0 | 0.00 | 0.00 | 0.00 | 30 | 1009.1 |
| 20260505235710 | 81 | 24 | 5.0 | 11.0 | 0.00 | 0.00 | 0.00 | 30 | 1009.2 |
| 20260505235443 | 82 | 11 | 5.0 | 12.0 | 0.00 | 0.00 | 0.00 | 30 | 1009.3 |
| 20260505234659 | 82 | 347 | 4.0 | 12.0 | 0.00 | 0.00 | 0.00 | 30 | 1009.3 |
| 20260505234151 | 82 | 57 | 4.0 | 11.0 | 0.00 | 0.00 | 0.00 | 30 | 1009.3 |
| 20260505233645 | 82 | 67 | 4.0 | 11.0 | 0.00 | 0.00 | 0.00 | 30 | 1009.3 |
| 20260505233427 | 82 | 338 | 4.0 | 8.0 | 0.00 | 0.00 | 0.00 | 30 | 1009.2 |
| 20260505232923 | 81 | 10 | 5.0 | 16.0 | 0.00 | 0.00 | 0.00 | 31 | 1009.3 |
| 20260505232128 | 81 | 0 | 6.0 | 16.0 | 0.00 | 0.00 | 0.00 | 31 | 1009.3 |
| 20260505231639 | 81 | 341 | 4.0 | 12.0 | 0.00 | 0.00 | 0.00 | 30 | 1009.3 |
| 20260505231634 | 81 | 317 | 5.0 | 12.0 | 0.00 | 0.00 | 0.00 | 31 | 1009.3 |
| 20260505230612 | 81 | 355 | 5.0 | 11.0 | 0.00 | 0.00 | 0.00 | 29 | 1009.3 |
| 20260505230105 | 81 | 355 | 6.0 | 11.0 | 0.00 | 0.00 | 0.00 | 29 | 1009.3 |
| 20260505225833 | 81 | 355 | 5.0 | 11.0 | 0.00 | 0.00 | 0.00 | 29 | 1009.3 |
| 20260505225137 | 81 | 19 | 6.0 | 15.0 | 0.00 | 0.00 | 0.00 | 29 | 1009.4 |
| 20260505225123 | 82 | 275 | 5.0 | 11.0 | 0.00 | 0.00 | 0.00 | 28 | 1009.3 |
| 20260505224042 | 82 | 337 | 5.0 | 12.0 | 0.00 | 0.00 | 0.00 | 29 | 1009.3 |
| 20260505223807 | 82 | 17 | 4.0 | 12.0 | 0.00 | 0.00 | 0.00 | 29 | 1009.2 |
| 20260505223029 | 82 | 28 | 3.0 | 10.0 | 0.00 | 0.00 | 0.00 | 29 | 1009.3 |
| 20260505222522 | 82 | 27 | 3.0 | 8.0 | 0.00 | 0.00 | 0.00 | 30 | 1009.3 |
| 20260505222250 | 81 | 54 | 4.0 | 15.0 | 0.00 | 0.00 | 0.00 | 30 | 1009.3 |
| 20260505221511 | 82 | 24 | 4.0 | 15.0 | 0.00 | 0.00 | 0.00 | 29 | 1009.3 |
| 20260505221005 | 82 | 61 | 3.0 | 10.0 | 0.00 | 0.00 | 0.00 | 30 | 1009.4 |
| 20260505220504 | 81 | 25 | 4.0 | 10.0 | 0.00 | 0.00 | 0.00 | 30 | 1009.4 |
| 20260505220226 | 81 | 321 | 5.0 | 11.0 | 0.00 | 0.00 | 0.00 | 29 | 1009.4 |
| 20260505215504 | 82 | 313 | 4.0 | 11.0 | 0.00 | 0.00 | 0.00 | 30 | 1009.5 |
| 20260505215008 | 82 | 34 | 3.0 | 8.0 | 0.00 | 0.00 | 0.00 | 31 | 1009.4 |
| 20260505214505 | 81 | 42 | 3.0 | 10.0 | 0.00 | 0.00 | 0.00 | 30 | 1009.5 |
| 20260505214238 | 81 | 69 | 4.0 | 10.0 | 0.00 | 0.00 | 0.00 | 31 | 1009.6 |
| 20260505213504 | 81 | 20 | 4.0 | 10.0 | 0.00 | 0.00 | 0.00 | 31 | 1009.6 |
| 20260505213250 | 80 | 344 | 4.0 | 11.0 | 0.00 | 0.00 | 0.00 | 32 | 1009.6 |
| 20260505212504 | 80 | 11 | 5.0 | 14.0 | 0.00 | 0.00 | 0.00 | 30 | 1009.7 |
| 20260505212004 | 80 | 39 | 4.0 | 14.0 | 0.00 | 0.00 | 0.00 | 32 | 1009.7 |
| 20260505211523 | 80 | 350 | 3.0 | 11.0 | 0.00 | 0.00 | 0.00 | 33 | 1009.7 |
| 20260505211003 | 80 | 355 | 4.0 | 11.0 | 0.00 | 0.00 | 0.00 | 31 | 1009.8 |
| 20260505210500 | 80 | 31 | 4.0 | 11.0 | 0.00 | 0.00 | 0.00 | 31 | 1009.7 |
| 20260505210003 | 80 | 9 | 3.0 | 11.0 | 0.00 | 0.00 | 0.00 | 34 | 1009.8 |
| 20260505205500 | 79 | 36 | 4.0 | 13.0 | 0.00 | 0.00 | 0.00 | 33 | 1009.8 |
| 20260505205000 | 79 | 39 | 5.0 | 13.0 | 0.00 | 0.00 | 0.00 | 33 | 1009.9 |
| 20260505204459 | 79 | 349 | 4.0 | 11.0 | 0.00 | 0.00 | 0.00 | 35 | 1009.8 |
| 20260505204000 | 79 | 44 | 4.0 | 14.0 | 0.00 | 0.00 | 0.00 | 35 | 1009.9 |
| 20260505203500 | 78 | 35 | 4.0 | 14.0 | 0.00 | 0.00 | 0.00 | 35 | 1010.1 |
| 20260505203000 | 78 | 355 | 4.0 | 11.0 | 0.00 | 0.00 | 0.00 | 36 | 1010.1 |
| 20260505202747 | 78 | 61 | 4.0 | 11.0 | 0.00 | 0.00 | 0.00 | 36 | 1010.2 |
| 20260505202239 | 78 | 5 | 4.0 | 10.0 | 0.00 | 0.00 | 0.00 | 35 | 1010.2 |
| 20260505201500 | 77 | 331 | 4.0 | 11.0 | 0.00 | 0.00 | 0.00 | 35 | 1010.2 |
| 20260505201000 | 77 | 32 | 4.0 | 11.0 | 0.00 | 0.00 | 0.00 | 37 | 1010.2 |
| 20260505200500 | 77 | 40 | 4.0 | 10.0 | 0.00 | 0.00 | 0.00 | 36 | 1010.3 |
| 20260505200001 | 76 | 313 | 4.0 | 10.0 | 0.00 | 0.00 | 0.00 | 36 | 1010.3 |
| 20260505195500 | 76 | 322 | 4.0 | 10.0 | 0.00 | 0.00 | 0.00 | 36 | 1010.3 |
| 20260505195244 | 76 | 340 | 4.0 | 11.0 | 0.00 | 0.00 | 0.00 | 36 | 1010.3 |
| 20260505194500 | 76 | 49 | 5.0 | 11.0 | 0.00 | 0.00 | 0.00 | 37 | 1010.4 |
| 20260505194008 | 76 | 350 | 5.0 | 12.0 | 0.00 | 0.00 | 0.00 | 37 | 1010.3 |
| 20260505193736 | 76 | 338 | 5.0 | 12.0 | 0.00 | 0.00 | 0.00 | 37 | 1010.4 |
| 20260505193230 | 75 | 19 | 4.0 | 12.0 | 0.00 | 0.00 | 0.00 | 38 | 1010.3 |
| 20260505192501 | 75 | 336 | 4.0 | 12.0 | 0.00 | 0.00 | 0.00 | 36 | 1010.5 |
| 20260505192244 | 74 | 346 | 4.0 | 10.0 | 0.00 | 0.00 | 0.00 | 39 | 1010.5 |
| 20260505191459 | 75 | 34 | 3.0 | 10.0 | 0.00 | 0.00 | 0.00 | 38 | 1010.5 |
| 20260505190957 | 74 | 338 | 3.0 | 10.0 | 0.00 | 0.00 | 0.00 | 40 | 1010.6 |
| 20260505190450 | 74 | 325 | 4.0 | 10.0 | 0.00 | 0.00 | 0.00 | 39 | 1010.6 |
| 20260505185943 | 74 | 341 | 3.0 | 10.0 | 0.00 | 0.00 | 0.00 | 40 | 1010.6 |
| 20260505185437 | 74 | 30 | 4.0 | 10.0 | 0.00 | 0.00 | 0.00 | 40 | 1010.6 |
| 20260505184932 | 73 | 348 | 3.0 | 9.0 | 0.00 | 0.00 | 0.00 | 40 | 1010.6 |
| 20260505184426 | 72 | 349 | 3.0 | 8.0 | 0.00 | 0.00 | 0.00 | 42 | 1010.5 |
| 20260505184156 | 72 | 306 | 3.0 | 9.0 | 0.00 | 0.00 | 0.00 | 42 | 1010.6 |
| 20260505183413 | 72 | 355 | 3.0 | 9.0 | 0.00 | 0.00 | 0.00 | 43 | 1010.6 |
| 20260505182911 | 72 | 316 | 3.0 | 9.0 | 0.00 | 0.00 | 0.00 | 41 | 1010.6 |
| 20260505182401 | 71 | 309 | 4.0 | 9.0 | 0.00 | 0.00 | 0.00 | 41 | 1010.7 |
| 20260505181855 | 71 | 319 | 4.0 | 9.0 | 0.00 | 0.00 | 0.00 | 42 | 1010.6 |
| 20260505181629 | 71 | 300 | 4.0 | 9.0 | 0.00 | 0.00 | 0.00 | 42 | 1010.6 |
| 20260505180843 | 71 | 332 | 3.0 | 8.0 | 0.00 | 0.00 | 0.00 | 44 | 1010.6 |
| 20260505180337 | 71 | 303 | 3.0 | 7.0 | 0.00 | 0.00 | 0.00 | 44 | 1010.6 |
| 20260505175834 | 70 | 298 | 3.0 | 6.0 | 0.00 | 0.00 | 0.00 | 44 | 1010.5 |
| 20260505175325 | 70 | 66 | 2.0 | 6.0 | 0.00 | 0.00 | 0.00 | 45 | 1010.6 |
| 20260505175049 | 69 | 42 | 2.0 | 6.0 | 0.00 | 0.00 | 0.00 | 45 | 1010.6 |
| 20260505174313 | 69 | 348 | 2.0 | 6.0 | 0.00 | 0.00 | 0.00 | 45 | 1010.6 |
| 20260505173807 | 68 | 347 | 3.0 | 8.0 | 0.00 | 0.00 | 0.00 | 47 | 1010.6 |
| 20260505173301 | 68 | 294 | 3.0 | 8.0 | 0.00 | 0.00 | 0.00 | 47 | 1010.6 |
| 20260505172838 | 68 | 302 | 2.0 | 6.0 | 0.00 | 0.00 | 0.00 | 46 | 1010.7 |
| 20260505172553 | 68 | 317 | 2.0 | 6.0 | 0.00 | 0.00 | 0.00 | 48 | 1010.7 |
| 20260505171238 | 67 | 313 | 3.0 | 6.0 | 0.00 | 0.00 | 0.00 | 48 | 1010.6 |
| 20260505170731 | 67 | 265 | 3.0 | 5.0 | 0.00 | 0.00 | 0.00 | 48 | 1010.6 |
| 20260505170225 | 66 | 282 | 2.0 | 4.0 | 0.00 | 0.00 | 0.00 | 50 | 1010.6 |
| 20260505165722 | 66 | 22 | 1.0 | 4.0 | 0.00 | 0.00 | 0.00 | 51 | 1010.6 |
| 20260505165213 | 66 | 29 | 2.0 | 4.0 | 0.00 | 0.00 | 0.00 | 52 | 1010.6 |
| 20260505164941 | 65 | 91 | 2.0 | 5.0 | 0.00 | 0.00 | 0.00 | 52 | 1010.5 |
| 20260505164202 | 65 | 143 | 1.0 | 5.0 | 0.00 | 0.00 | 0.00 | 53 | 1010.5 |
| 20260505163656 | 64 | 150 | 1.0 | 5.0 | 0.00 | 0.00 | 0.00 | 54 | 1010.6 |
| 20260505163150 | 64 | 132 | 1.0 | 5.0 | 0.00 | 0.00 | 0.00 | 54 | 1010.7 |
| 20260505162946 | 63 | 155 | 2.0 | 5.0 | 0.00 | 0.00 | 0.00 | 57 | 1010.7 |
| 20260505162942 | 64 | 161 | 1.0 | 5.0 | 0.00 | 0.00 | 0.00 | 56 | 1010.7 |
| 20260505161631 | 63 | 188 | 1.0 | 5.0 | 0.00 | 0.00 | 0.00 | 58 | 1010.7 |
| 20260505161128 | 62 | 151 | 1.0 | 5.0 | 0.00 | 0.00 | 0.00 | 59 | 1010.8 |
| 20260505160619 | 62 | 181 | 1.0 | 5.0 | 0.00 | 0.00 | 0.00 | 60 | 1010.8 |
| 20260505160346 | 61 | 182 | 1.0 | 5.0 | 0.00 | 0.00 | 0.00 | 61 | 1010.9 |
| 20260505153038 | 58 | 128 | 1.0 | 4.0 | 0.00 | 0.00 | 0.00 | 64 | 1010.8 |
| 20260505152531 | 58 | 138 | 1.0 | 4.0 | 0.00 | 0.00 | 0.00 | 66 | 1010.8 |
| 20260505152301 | 56 | 185 | 1.0 | 3.0 | 0.00 | 0.00 | 0.00 | 68 | 1010.7 |
| 20260505151522 | 56 | 192 | 0.0 | 3.0 | 0.00 | 0.00 | 0.00 | 68 | 1010.7 |
| 20260505151019 | 55 | 126 | 0.0 | 0.0 | 0.00 | 0.00 | 0.00 | 69 | 1010.7 |
| 20260505150521 | 54 | 125 | 0.0 | 0.0 | 0.00 | 0.00 | 0.00 | 71 | 1010.7 |
| 20260505140521 | 47 | 129 | 0.0 | 0.0 | 0.00 | 0.00 | 0.00 | 82 | 1010.2 |
| 20260505140232 | 47 | 129 | 0.0 | 0.0 | 0.00 | 0.00 | 0.00 | 83 | 1010.3 |
| 20260505124412 | 46 | 129 | 0.0 | 2.0 | 0.00 | 0.00 | 0.00 | 80 | 1009.3 |
| 20260505123908 | 46 | 129 | 0.0 | 0.0 | 0.00 | 0.00 | 0.00 | 78 | 1009.2 |